Location: ?????????
(53.2086°N, 54.0693°E)
Time: 15:30:13
(UTC+00:00)

Cosmos 494 Rocket - Pass Details

Date: 08 December 2019
Orbit: 743 x 770 km, 74.1° (Epoch: 19 January)

Event Time Altitude Azimuth Distance (km) Brightness Sun altitude
Rises 12:54:58 0° 194° (SSW) 3,232 7.9 -6.8°
Reaches altitude 10° 12:57:21 10° 191° (S) 2,310 7.1 -7.2°
Maximum altitude 13:02:32 65° 111° (ESE) 851 4.1 -7.8°
Drops below altitude 10° 13:07:45 10° 31° (NNE) 2,320 6.0 -8.5°
Enters shadow 13:08:47 - 29° (NNE) 2,721 6.3 -8.7°
